Temp
21 21 21 20 18 15 19 21 20 23 24 25 23 25 25 26 25 24 21 23 27 25 24 23 23 23 22 22 22 22 22 22 22 22 22 22 22 21 21 21 20 20 20 20 20 20 20 20 20
20 21 20 14 16 18 19 19 22 22 23 22 23 26 25 26 25 23 22 25 27 26 24 24 23 22 22 22 22 22 22 22 21 22 21 21 21 21 21 20 20 20 20 20 20 20 20 20 20
20 20 16 14 12 17 18 21 20 21 22 23 24 25 26 26 25 23 25 25 26 26 25 24 23 22 22 22 22 22 22 22 22 21 21 21 21 20 20 20 20 20 20 20 20 20 20 20 20
20 17 14 16 17 17 18 20 21 21 23 23 23 24 23 26 25 26 26 25 26 25 24 24 23 23 23 22 22 22 21 21 21 21 21 20 20 20 20 20 20 20 20 20 20 20 20 20 20
18 14 14 15 17 17 18 20 21 22 22 22 23 22 24 26 25 25 26 26 27 25 24 23 24 23 23 22 22 22 22 21 21 21 21 20 20 20 20 19 19 19 20 19 20 20 19 19 19
15 13 15 16 16 18 19 20 22 22 22 22 23 22 23 26 26 24 21 25 25 24 23 24 24 24 23 22 23 22 22 22 21 21 20 20 20 20 20 19 19 19 20 20 20 19 19 19 19
15 14 15 15 17 18 20 22 22 22 21 22 23 22 22 23 24 26 20 20 23 22 22 22 22 22 22 23 23 23 22 22 21 21 20 20 20 20 19 19 19 19 19 20 19 19 19 19 19
13 14 16 16 17 18 20 20 21 22 21 22 24 22 22 22 23 23 23 19 21 21 22 22 22 21 21 22 23 23 22 22 21 21 20 20 19 19 19 19 19 19 19 19 19 19 18 18 18
15 14 14 17 18 19 20 20 21 22 21 21 22 23 23 23 21 20 21 20 18 19 21 22 21 20 20 21 22 22 23 22 21 20 20 19 19 19 19 18 18 19 19 19 19 19 18 19 18
15 13 15 16 19 19 20 18 19 20 19 20 20 22 24 23 21 20 20 19 18 17 16 17 17 18 20 20 20 21 21 21 20 20 20 19 19 19 18 18 18 19 18 19 19 19 18 18 18
15 15 16 18 18 16 17 17 19 18 19 21 21 20 21 23 22 21 21 21 20 19 18 16 17 17 18 18 19 20 20 20 20 20 20 19 19 19 18 18 18 18 17 18 18 18 18 18 18
17 17 17 16 17 15 16 18 18 18 18 20 20 20 20 20 20 20 21 23 22 21 20 18 17 17 17 17 17 19 20 19 19 20 20 19 19 19 18 18 18 18 18 18 18 18 18 18 18
16 16 15 16 14 14 15 15 16 17 18 17 18 19 19 19 19 23 24 23 24 23 22 21 19 17 17 17 17 17 17 17 17 19 19 19 19 19 19 18 18 18 18 17 18 18 17 17 17
15 15 14 14 15 15 14 15 17 18 16 17 18 17 18 18 19 21 23 24 23 24 24 24 22 20 17 17 17 16 17 17 18 18 19 19 19 20 19 18 18 18 18 18 18 18 17 17 17
15 14 13 13 13 14 15 16 15 15 15 16 17 17 18 18 20 19 22 23 25 26 25 24 24 24 20 17 16 17 16 16 17 17 18 19 19 19 19 18 18 17 18 18 17 18 17 17 17
13 11 11 13 13 14 13 14 15 16 16 16 16 17 17 17 18 19 21 22 23 25 25 23 23 22 22 19 17 17 16 16 17 17 17 18 18 18 19 18 18 17 17 17 17 17 17 16 16
9 10 11 12 12 12 14 13 16 15 15 15 15 16 16 17 17 18 19 21 22 23 26 25 22 21 20 19 18 17 16 16 17 17 17 17 18 18 18 18 18 18 17 17 17 17 17 16 15
11 10 11 11 11 12 11 12 13 14 14 14 14 15 15 16 16 18 19 20 21 22 23 25 22 20 19 18 17 16 16 16 16 16 17 17 17 18 18 18 18 17 17 17 16 16 16 16 16
12 11 9 11 11 11 11 12 12 13 13 13 13 14 15 15 16 17 18 19 21 22 22 22 21 20 17 17 17 16 16 16 16 16 17 17 17 17 18 18 17 17 17 16 16 16 16 15 14
11 10 9 11 12 12 11 11 12 13 13 14 14 14 15 15 16 17 18 19 20 22 23 21 21 19 18 18 17 17 17 16 16 16 16 16 17 17 18 18 17 17 16 15 16 16 15 15 14
10 9 10 10 11 11 11 11 13 14 14 15 16 16 16 15 15 16 17 17 19 20 21 23 23 20 19 18 17 18 17 17 16 16 16 17 16 17 18 18 18 17 16 15 15 16 16 14 14
9 11 10 9 9 8 10 8 12 13 14 15 16 16 16 16 16 16 16 17 18 20 22 22 23 22 20 18 18 18 18 18 17 17 16 16 17 17 18 18 17 17 16 15 15 15 15 15 14
9 10 9 10 9 8 9 8 9 14 14 15 14 12 15 17 16 16 16 17 19 21 21 22 23 22 20 18 18 18 18 18 18 17 17 16 16 17 18 17 17 18 17 16 16 15 15 15 15
11 9 9 9 8 8 10 9 11 12 14 14 14 12 13 13 15 15 16 17 18 20 21 22 22 21 20 18 18 18 18 18 17 17 17 16 16 16 17 17 17 17 17 17 17 17 16 15 15
8 7 8 9 10 10 12 10 11 13 15 14 14 13 12 12 11 11 11 11 15 17 18 20 19 20 20 19 18 18 18 18 17 18 17 16 16 16 16 17 16 16 17 17 17 17 16 15 15
8 8 5 4 9 9 10 9 11 15 14 15 14 14 12 12 13 13 13 13 11 13 15 17 19 20 20 18 18 17 18 17 17 17 17 17 16 16 16 16 16 16 18 17 16 16 16 16 15
8 8 9 4 8 8 10 11 13 13 13 13 12 13 11 12 12 11 11 10 11 11 12 15 16 16 18 18 18 17 18 17 17 17 17 16 16 16 16 16 16 16 17 17 16 15 15 15 15
9 10 6 7 7 9 10 11 11 10 10 11 12 12 11 11 10 10 10 9 9 9 9 11 13 13 15 17 17 17 17 17 16 16 16 16 16 16 16 16 16 16 17 17 15 15 15 14 14
7 5 7 7 7 9 9 11 11 10 10 9 11 10 9 9 9 8 8 8 7 7 7 7 9 11 11 13 15 15 16 16 15 15 15 16 16 17 16 16 17 16 16 16 15 15 14 14 14
8 9 8 6 6 9 9 10 12 10 10 9 9 8 8 7 6 6 6 7 6 5 5 5 6 7 8 10 12 14 15 17 18 16 16 15 16 16 16 15 16 17 16 15 15 15 14 14 14
Height
772 773 774 775 804 814 811 797 786 778 773 763 760 761 759 749 755 771 729 730 733 739 744 750 754 757 758 759 760 763 765 766 767 769 773 776 779 782 784 786 789 790 793 796 798 799 802 803 805
773 773 775 790 818 825 813 796 787 781 774 762 755 749 751 749 733 732 730 728 732 736 743 749 754 757 759 759 759 762 764 766 768 770 774 777 780 782 784 787 790 792 794 796 798 800 802 804 805
774 774 784 809 830 824 814 786 786 777 766 763 760 746 748 744 734 728 726 728 732 735 740 747 752 756 758 759 759 761 763 765 768 771 774 778 780 782 785 788 791 793 795 797 800 801 803 805 805
774 776 794 811 813 806 799 784 778 775 763 762 764 763 753 740 735 730 727 729 733 736 740 743 747 754 758 760 760 761 763 765 768 772 775 778 781 783 785 789 791 793 795 798 800 803 803 805 808
774 786 810 814 810 800 788 778 773 776 769 767 764 769 757 742 738 733 729 730 732 736 741 744 746 749 755 758 759 760 762 765 768 772 775 779 781 784 787 790 792 794 796 798 801 803 806 805 809
786 793 814 819 810 793 781 773 772 772 769 768 767 765 757 743 739 740 740 732 736 739 741 744 748 747 752 756 757 759 761 764 767 771 775 779 782 786 788 790 792 795 797 800 802 803 807 806 809
789 802 811 812 804 793 779 769 773 772 774 770 762 769 754 743 740 739 744 742 736 740 743 747 751 752 751 753 756 757 759 762 766 770 775 779 783 786 789 791 793 795 798 800 803 804 807 808 810
788 797 807 804 804 798 776 772 767 770 773 761 759 767 762 745 741 739 742 748 742 741 744 746 750 752 754 754 755 757 758 761 765 769 774 778 782 786 789 792 793 796 798 801 803 804 808 809 812
782 807 815 800 796 786 773 775 764 763 768 765 760 758 752 747 743 742 740 747 753 745 742 745 748 750 752 754 755 757 758 760 764 769 773 777 781 784 788 791 793 796 798 801 802 805 808 810 813
791 808 803 792 785 785 779 778 771 770 771 765 761 754 750 748 744 742 745 745 750 753 755 751 748 752 751 754 755 756 757 759 762 767 771 775 779 783 787 790 793 796 799 802 804 806 807 809 813
792 798 792 785 783 785 783 779 771 773 771 764 759 753 748 745 743 740 740 743 746 751 752 753 756 756 753 753 755 755 756 758 762 766 770 774 777 782 786 789 793 796 799 801 804 806 808 812 814
791 788 787 787 782 786 783 774 774 769 766 756 753 750 747 745 742 740 738 736 742 745 748 750 753 755 757 754 754 754 754 756 759 763 768 772 775 779 784 788 791 795 799 801 803 805 808 812 815
791 790 789 786 786 783 778 781 776 768 758 758 753 749 747 744 741 738 735 734 732 737 742 745 749 752 754 754 755 755 756 755 757 760 765 769 772 776 781 786 790 794 798 801 803 805 809 810 814
790 790 791 788 783 779 779 773 770 762 761 758 756 754 750 745 742 737 733 730 729 730 730 734 741 747 749 750 749 751 753 757 757 758 761 765 771 773 779 784 788 793 796 799 802 804 808 810 813
789 793 792 788 786 782 772 767 770 763 762 762 757 752 748 745 741 735 731 728 724 722 723 725 727 732 741 745 746 745 748 751 754 756 759 763 768 772 776 781 786 790 794 798 801 804 807 810 813
796 802 809 792 791 784 786 766 761 764 762 755 754 749 742 735 734 732 731 726 721 718 717 718 719 721 725 732 739 741 745 746 750 754 757 760 764 770 773 778 782 787 791 794 798 802 805 809 812
815 820 812 803 795 795 794 771 747 764 764 752 747 741 736 724 720 718 720 719 716 713 710 710 710 712 716 721 729 735 739 743 745 750 753 756 761 766 770 774 778 783 788 792 796 800 803 807 811
821 821 809 809 800 795 799 780 762 753 762 756 743 734 729 723 706 707 706 709 709 705 704 702 705 704 708 715 722 731 736 741 741 745 748 752 756 761 766 771 775 779 784 788 793 797 800 804 809
810 814 816 805 796 799 795 776 759 752 748 746 740 732 722 715 703 701 697 694 697 697 695 695 694 695 704 709 715 723 726 731 735 738 744 747 751 756 761 766 771 775 779 783 789 794 798 802 807
812 816 811 794 790 793 784 768 751 745 741 734 727 721 713 704 698 692 691 689 686 685 684 683 685 688 692 700 700 710 717 724 729 734 738 744 746 751 755 760 765 769 774 779 783 788 793 798 802
814 815 810 804 783 787 783 763 742 726 728 721 712 704 699 691 685 682 680 680 678 675 674 674 676 679 682 687 698 705 714 721 726 730 732 734 740 744 749 755 760 764 768 772 778 783 787 792 799
819 803 805 801 806 804 788 797 746 730 724 714 703 697 684 676 669 666 666 666 665 661 662 663 665 669 670 679 687 692 696 704 708 712 720 727 732 738 743 749 755 759 764 768 772 778 783 786 792
813 803 799 793 800 802 790 801 760 734 722 713 711 710 682 662 656 652 650 651 652 650 650 652 655 659 662 670 676 682 688 693 698 707 714 721 725 730 738 743 750 754 758 763 768 773 778 782 786
803 801 793 791 798 797 779 786 747 738 725 712 706 703 680 659 645 640 638 638 639 637 640 645 646 649 655 663 668 674 681 685 694 700 708 714 719 723 731 737 742 747 752 757 763 767 772 776 780
810 809 813 797 788 781 761 774 746 730 720 716 705 697 677 661 648 640 639 635 629 627 631 632 636 640 647 655 663 669 674 679 682 689 697 706 711 716 722 729 736 741 746 751 757 761 766 770 773
814 815 839 856 804 788 767 771 749 724 721 711 706 694 682 668 658 647 640 632 626 630 629 630 627 632 643 652 659 666 671 674 682 687 691 697 702 708 716 723 730 735 739 745 750 755 759 764 768
819 821 811 843 808 803 770 755 733 729 726 715 707 694 685 674 662 656 649 642 638 636 635 630 629 635 645 650 656 660 662 669 679 685 688 693 699 704 709 717 723 728 733 738 744 748 753 758 763
811 809 832 824 821 797 771 755 746 744 734 722 706 699 693 684 673 665 658 656 651 645 644 640 633 637 644 645 651 657 661 669 675 682 684 689 693 698 705 712 718 723 728 733 738 743 748 753 758
820 830 822 817 817 803 782 752 754 750 743 734 714 709 703 698 687 678 673 671 667 655 650 647 642 651 660 658 653 657 663 670 677 682 685 686 686 692 699 707 713 719 724 728 734 738 743 748 753
809 808 813 826 820 798 793 765 745 752 744 740 729 723 717 712 705 697 691 686 679 669 664 658 660 661 660 660 657 662 663 663 674 682 685 689 688 691 697 704 709 714 720 725 730 734 739 744 747
Wind_Speed
2 4 4 5 4 5 4 5 2 4 5 5 8 3 6 3 6 5 5 22 26 33 31 28 25 24 24 23 23 21 20 20 21 23 25 26 25 23 23 21 20 21 20 20 18 17 17 17 17
6 5 5 3 5 3 5 4 4 4 11 13 10 10 4 7 3 2 13 20 29 35 33 30 27 25 24 24 24 22 21 20 21 21 23 25 25 23 21 20 20 21 21 20 18 18 19 19 19
5 4 4 4 4 5 5 4 5 6 9 4 8 4 6 6 4 6 4 24 33 35 34 31 29 27 25 24 24 23 22 21 20 21 22 22 23 23 21 21 21 20 20 18 18 18 19 20 21
2 5 4 4 5 6 6 5 4 10 3 6 6 6 10 7 4 10 16 29 34 36 35 33 31 28 26 25 24 23 22 21 21 21 21 21 21 21 21 21 20 20 20 18 18 19 21 20 20
5 3 4 2 4 5 6 4 5 4 7 6 4 9 20 19 19 10 23 33 39 38 35 33 31 30 28 27 25 23 22 21 21 20 19 19 19 19 19 19 19 19 20 18 18 19 21 21 22
4 3 4 3 5 5 6 5 3 3 5 8 6 9 8 21 26 11 18 35 36 37 35 34 32 32 31 28 26 24 23 22 21 20 20 19 18 17 17 17 18 18 17 16 19 21 22 24 24
6 4 3 4 4 5 4 3 5 4 6 5 3 9 6 11 30 9 13 21 33 33 33 33 32 31 31 29 26 25 24 23 22 21 21 20 18 16 16 17 17 17 15 16 20 22 24 25 25
5 4 3 4 3 6 5 6 4 2 7 4 4 4 10 9 20 9 21 14 26 31 32 32 32 30 29 28 26 25 24 22 22 22 21 20 18 15 16 18 15 17 17 18 23 24 26 26 24
3 4 2 4 4 4 8 6 3 1 6 4 4 5 8 15 4 6 15 15 13 24 32 33 31 31 30 28 27 25 23 22 22 22 21 21 19 17 16 16 18 16 17 18 23 25 27 25 23
4 4 7 5 3 4 5 10 13 3 7 5 7 7 11 8 5 6 2 4 12 14 13 20 26 28 30 28 28 27 25 25 25 24 23 22 20 18 16 18 17 18 19 18 21 24 26 22 22
2 4 4 4 4 3 5 8 2 6 0 5 16 10 12 8 8 9 8 12 13 17 19 18 16 20 26 28 29 28 27 26 26 25 25 23 21 19 19 21 17 19 21 21 22 22 25 24 21
2 2 2 5 5 5 5 4 8 5 9 9 9 14 9 10 8 10 14 21 18 18 21 28 21 22 23 25 26 30 30 28 28 28 27 26 24 21 21 24 19 25 20 19 21 23 22 21 20
3 3 5 5 11 8 6 6 7 12 11 9 11 11 10 11 10 21 22 24 30 25 23 27 30 26 24 22 19 22 25 24 28 29 29 28 27 26 23 24 23 23 22 19 20 22 21 21 20
1 3 8 4 7 4 9 8 1 4 10 17 14 13 12 11 11 21 25 26 20 28 35 35 31 35 32 29 27 24 24 22 22 29 32 31 29 29 25 24 24 25 24 21 20 20 21 20 20
3 4 5 6 9 4 13 3 7 11 12 19 22 17 16 14 20 18 25 28 32 27 33 38 38 40 40 35 30 29 29 26 24 26 33 33 31 30 28 25 26 26 26 22 20 19 18 18 19
5 5 6 7 10 5 9 11 5 11 22 25 18 21 21 19 17 25 29 32 34 37 31 33 39 43 47 46 39 31 27 27 26 26 28 35 33 32 30 26 28 27 24 24 23 19 19 18 19
7 4 5 6 9 7 5 26 19 17 16 24 22 21 19 24 22 27 24 28 36 38 39 36 35 40 47 47 43 39 31 27 28 25 28 33 36 33 32 29 29 29 25 25 24 22 21 21 18
5 5 5 8 5 5 9 25 24 26 14 20 26 26 23 23 29 28 32 28 33 35 38 37 40 39 44 42 36 34 30 27 28 29 30 31 35 37 34 32 29 29 26 25 26 24 22 21 20
4 4 11 10 9 7 8 22 25 23 22 21 23 26 26 25 28 32 31 30 30 36 37 37 36 38 34 33 32 31 33 32 31 32 29 33 34 37 37 34 31 29 29 27 28 26 24 18 19
6 8 10 11 1 12 14 27 22 18 13 18 21 22 24 26 25 24 26 25 29 34 37 33 34 35 40 35 39 33 34 31 30 29 31 31 35 36 39 38 35 32 30 27 30 31 25 20 23
4 5 5 12 21 10 9 12 11 26 15 19 21 21 21 24 26 25 24 27 30 34 39 39 35 37 41 39 32 24 26 19 24 28 32 36 37 37 38 38 37 34 32 32 31 34 31 21 23
4 3 8 12 9 6 10 8 11 14 20 22 25 30 23 22 23 21 23 22 30 35 39 39 39 38 42 38 35 36 37 29 30 38 34 35 37 39 38 39 38 36 33 30 31 34 35 28 20
7 7 11 16 12 2 1 1 10 20 18 16 24 36 31 25 21 21 21 23 33 35 36 38 36 33 32 37 40 39 36 35 31 30 31 33 36 40 39 39 37 36 37 34 33 33 34 33 25
8 6 9 1 2 2 4 2 18 7 10 19 20 26 32 24 17 17 18 29 30 30 28 28 28 28 32 36 39 41 38 32 27 29 30 32 31 37 39 39 40 39 37 35 34 33 34 36 32
7 6 4 5 4 4 4 11 9 15 15 19 21 24 28 26 11 9 8 9 12 18 26 29 32 25 27 35 36 38 36 34 36 35 33 31 29 30 36 39 38 38 38 36 36 35 34 34 34
3 1 3 3 4 11 16 5 6 15 14 20 18 22 30 22 14 14 13 11 8 6 10 17 17 20 28 31 33 31 29 28 29 33 33 33 32 33 35 41 38 37 35 35 35 36 36 35 33
2 1 5 3 9 5 5 7 12 19 23 21 19 20 21 21 17 18 19 16 18 19 16 9 18 13 23 25 28 29 29 26 27 31 34 32 30 30 34 37 39 38 35 33 33 33 33 32 32
3 2 4 2 4 6 3 8 5 22 25 27 24 20 20 22 21 18 20 19 21 25 22 24 28 27 11 11 23 27 26 31 30 31 33 33 31 31 32 34 35 34 35 32 32 30 30 30 29
2 2 2 2 2 3 6 7 6 18 22 25 23 19 18 21 22 18 21 23 20 28 30 31 35 29 21 12 13 19 22 21 18 21 25 30 30 29 31 34 33 33 31 30 31 28 27 27 28
4 4 3 1 3 5 5 7 12 26 23 22 18 18 19 18 21 21 22 24 20 26 28 31 31 27 29 25 26 19 11 6 9 17 18 24 27 28 30 31 30 29 29 26 26 25 25 26 26
Wind_Direction
81 100 72 43 51 57 281 268 286 321 12 319 274 246 224 225 183 216 345 159 165 167 169 175 176 173 172 169 164 162 157 151 146 142 147 155 157 158 159 160 161 161 161 159 160 161 154 148 147
108 109 61 77 87 56 276 278 302 347 309 300 295 320 276 257 222 284 135 166 168 167 171 176 176 176 177 173 167 165 162 156 150 147 151 155 160 165 166 166 166 163 161 160 157 156 153 148 147
101 62 80 91 107 181 232 209 268 290 291 321 324 329 333 304 310 193 208 167 168 168 172 174 175 179 179 175 170 167 165 158 155 153 155 159 163 168 169 169 167 166 166 163 162 159 154 154 154
143 29 41 95 203 246 218 265 289 334 346 51 317 21 328 301 269 198 174 167 169 172 174 172 173 179 179 178 171 167 163 159 159 160 161 162 165 169 168 169 168 168 165 166 165 162 162 160 160
63 61 74 81 258 270 251 246 281 324 296 338 356 310 324 349 327 259 180 174 174 175 175 174 174 176 179 178 173 168 165 163 162 165 165 167 173 174 171 171 169 171 171 169 165 167 170 162 163
48 86 82 204 243 252 277 254 295 301 298 328 6 344 291 347 1 316 195 176 178 177 176 177 178 176 176 179 174 169 167 167 166 167 169 175 180 180 174 169 170 172 167 167 165 167 170 160 160
112 90 192 162 259 301 269 309 317 312 322 308 293 325 279 330 345 299 211 191 180 181 180 181 183 181 177 178 176 171 170 169 167 167 173 179 185 183 177 168 164 168 163 166 166 162 165 158 156
106 94 132 226 221 269 276 327 258 265 299 298 349 312 315 306 340 225 202 223 191 185 184 185 186 185 185 181 177 174 170 168 169 171 175 180 184 184 181 179 179 172 165 166 163 161 164 157 157
123 71 190 233 178 251 303 306 203 319 253 309 254 312 277 314 319 174 178 212 239 198 190 190 189 190 187 184 179 176 172 169 169 173 178 179 181 184 178 186 188 176 170 171 162 165 170 167 162
93 124 217 213 241 267 295 299 308 337 320 280 289 268 294 293 169 141 264 203 240 240 232 203 195 197 189 187 181 178 174 172 173 177 180 183 182 186 183 175 175 179 178 170 171 172 171 173 167
97 192 191 257 272 19 271 299 277 313 333 282 295 301 304 298 261 193 189 234 242 242 236 220 224 209 193 188 185 181 179 177 180 182 185 185 183 188 183 176 174 169 174 169 171 169 174 182 179
29 238 57 293 297 319 275 267 298 256 250 258 280 290 293 289 287 256 224 211 226 228 240 227 222 218 207 194 189 187 184 183 186 187 188 189 185 187 184 183 179 180 177 178 176 175 180 186 191
167 329 311 276 302 280 284 257 245 282 298 293 285 298 296 288 277 275 261 242 222 221 235 234 229 222 213 202 194 193 192 189 190 192 191 194 191 188 188 189 184 178 185 188 185 183 186 188 194
306 293 301 350 303 331 338 288 268 288 331 347 338 323 311 295 286 284 279 264 233 234 227 228 231 227 219 210 198 194 194 200 192 197 196 196 199 190 190 191 190 190 194 196 196 191 191 195 198
309 346 345 18 350 12 337 94 168 344 348 334 321 323 318 305 307 282 280 271 264 245 240 222 220 222 222 217 209 202 199 196 197 199 201 200 201 196 194 196 195 195 200 203 203 200 195 199 205
24 56 11 321 15 350 49 286 343 314 333 312 305 303 301 293 288 292 298 290 277 268 247 236 225 219 216 218 217 207 202 196 199 200 203 203 203 205 198 200 201 200 202 206 206 201 195 201 206
16 323 315 314 341 348 54 293 301 314 307 298 297 291 286 291 285 278 278 285 289 270 261 249 232 222 215 213 216 215 208 201 200 199 203 206 206 207 207 204 206 204 208 208 205 199 199 197 203
305 309 278 291 281 298 284 273 291 296 292 282 287 287 284 280 276 278 272 269 277 282 275 255 239 221 214 205 202 208 207 207 201 203 204 202 207 208 209 211 209 207 211 207 202 202 197 201 196
239 250 279 278 275 299 249 281 288 291 286 279 269 274 278 275 277 277 271 262 262 270 265 248 225 217 198 192 191 195 202 205 204 204 206 205 202 210 209 213 212 209 210 211 204 201 200 192 191
354 302 294 302 213 309 290 288 294 284 285 287 282 273 268 269 272 273 269 270 259 262 266 257 227 206 202 198 195 198 200 205 204 202 207 208 207 209 210 211 212 210 208 210 209 203 194 198 194
270 250 276 286 313 222 281 282 332 306 307 301 294 279 270 267 264 265 268 262 256 250 252 252 240 212 205 199 194 192 186 191 190 200 206 207 210 209 210 211 213 211 211 209 213 208 203 183 197
301 241 277 280 324 301 72 290 314 311 312 309 328 323 295 272 262 254 257 257 246 238 250 247 243 220 208 194 189 189 188 191 201 201 202 201 204 210 212 213 214 214 214 210 211 213 207 201 186
250 285 261 281 276 290 47 138 271 304 297 323 348 330 310 290 262 254 250 251 243 238 241 244 236 230 207 194 196 194 193 200 197 196 195 198 198 207 213 216 215 217 218 218 219 215 211 209 200
270 268 291 77 163 349 227 105 290 297 309 325 347 322 330 312 269 252 255 257 242 231 226 216 212 214 202 196 197 197 200 189 184 184 189 193 192 196 210 216 219 217 217 217 220 220 220 218 214
354 8 343 350 3 263 313 329 254 289 324 331 333 336 337 338 336 313 295 277 237 199 208 203 195 190 198 196 198 198 198 192 190 186 184 186 185 188 202 210 210 213 219 216 218 216 220 219 218
28 36 114 264 307 294 304 231 266 321 335 333 346 350 347 334 354 360 360 14 28 33 199 199 173 179 193 191 197 195 194 189 191 186 185 189 191 195 198 206 211 214 215 217 219 221 223 228 232
241 55 187 221 248 259 256 299 311 0 347 340 345 342 4 347 3 12 12 19 26 29 20 81 117 123 171 180 182 181 186 181 185 187 186 186 190 192 198 204 210 215 214 213 216 215 217 223 228
124 239 22 312 309 309 292 294 328 348 340 342 340 346 7 357 3 8 12 9 20 36 28 39 74 63 64 186 184 178 181 188 190 191 187 187 188 191 200 205 207 210 215 215 216 210 217 222 227
344 25 25 253 216 279 299 325 39 351 345 339 337 355 14 10 10 8 9 3 14 35 33 36 44 56 34 55 120 151 166 171 175 189 193 195 193 200 204 204 210 210 211 214 215 211 212 218 225
182 160 126 56 296 241 260 280 355 343 338 338 348 1 14 18 14 15 13 355 10 35 32 38 38 34 36 37 67 79 81 107 235 231 222 218 203 203 207 206 206 207 212 212 215 219 223 223 221